COSMOS 2251 DEB, 35980

Orbit data source: Space-Track

COSMOS 2251 DEB, 35980 is space debris in LEO originally from a launch on Wed, 16 Jun 1993 UTC launched from the Plesetsk Missile And Space Complex (PKMTR). The debris from Iridium 33, an American commercial communications satellite, has been tracked extensively since its accidental collision with the defunct Russian satellite Cosmos 2251 in 2009. This event, occurring at high speed in low Earth orbit (LEO), generated thousands of pieces of space debris, significantly increasing the risk of further collisions. The Iridium 33 debris cloud has impacted space traffic management and orbital debris mitigation strategies, making it a subject of ongoing study in space situational awareness.

Loading next visibility...
Identifier
35980, 1993-036AVW
Orbit
LEO
Country
Flag of CISCIS
Related business
Manufacturer
Unknown
Mission
Spacecraft
Bus & Motor
Unknown
Mass
Unknown
Launch date (UTC)
1993-06-16 (33 years ago)
Launch vehicle
Unknown
Launch site
Plesetsk Missile And Space Complex (PKMTR)
Object type
Payload
Rocket body
Debris
Shape & HBR
Unknown shape, 0.1 m
Radar Cross Section
Small (<0.1 m²)

Expand to show TLE details & history
Last TLE update: 4 days ago

TLE from 4 days ago
0 COSMOS 2251 DEB
1 35980U 93036AVW 26119.98409146  .00004448  00000-0  89282-3 0  9998
2 35980  73.9102 216.7225 0053239 320.0943  39.6313 14.61098904635042
Epoch: 2026-04-29T23:37Z
TLE epoch observation values (Epoch: 2026-04-29T23:37:05.502Z)
Latitude
-0.00001°
Longitude
4.51236°
Altitude
663.36 km
Speed
7.541 km/s
True Right ascension
14h 26m 53s
True Declination
0° 00' 00"
Sunlit
Object was in full shadow at epoch
Visualization orbit readout
Latitude
Unknown
Longitude
Unknown
Altitude
Unknown
Speed
Unknown
Apparent Right ascension
Unknown
Apparent Declination
Unknown
Sunlit
N/A
Visualization observer readout
Local Sidereal Time
17:37:40
Azimuth
Unknown
Elevation
Unknown
Doppler factor
Unknown
Orbital elements
Apogee altitude
724.85 km
Perigee altitude
649.62 km
Semi-major axis
7,065.372 km
Eccentricity
0.00532
Inclination
73.9102°
RAAN
216.7225°
Arg. of periapsis
320.0943°
True anomaly
40.02243°
Mean anomaly
39.6313°
Eccentric anomaly
39.82667°
Mean motion
3.65461 °/min
Orbital period
98.51 mins
BSTAR
0.00089282
Loading maneuver chart data...
Computing Atmospheric mass density...

Documentation

Showing up to 5 results
|